contact:dominique.lefevre@mio.osupytheas.fr, maurice.libes@osupytheas.fr
Project:EMSO Ligure-ouest http://www.emso-fr.org/EMSO-France
Sensor Aquadopp, line 13 Serial AQD14315 
DOI : "https://doi.org/10.17882/74513; https://doi.org/10.17882/83244" 
Title:EMSO Ligure Ouest : Data ligne ALBATROSS capteur AQUADOPP - deploiement 2021
Id,Date,Profondeur,Latitude,Longitude,X_East,Y_North,Z_Up,Amplitude_X,Amplitude_Y,Amplitude_Z,Batterie,SoundSpeed,Heading,Pitch,Roll,Pressure,Temperature,Speed,Direction
, , m, degrees North, degrees East, m.s-1, m.s-1,m.s-1, 1, 1, 1, Volt, m.s-1, degree, degree, degree, dbar, degree_C, m.s-1, degree
07,2021-12-01T21:30:00,1500.0,42.79,6.0312,-0.006,-0.052,0.014,54.0,54.0,55.0,12.6,1504.2,176.2,-0.2,-0.3,1472.769,13.15,0.052,186.6
07,2021-12-01T22:00:00,1500.0,42.79,6.0312,-0.028,-0.046,-0.002,54.0,55.0,54.0,12.6,1504.2,186.9,-0.3,-0.4,1472.74,13.15,0.053,211.3
07,2021-12-01T22:30:00,1500.0,42.79,6.0312,-0.029,-0.044,0.019,55.0,57.0,55.0,12.6,1504.2,186.7,0.0,-0.3,1472.71,13.14,0.052,213.4
07,2021-12-01T23:00:00,1500.0,42.79,6.0312,-0.018,-0.029,0.002,57.0,56.0,55.0,12.6,1504.2,194.7,-0.1,-0.3,1472.682,13.15,0.034,211.8
07,2021-12-01T23:30:00,1500.0,42.79,6.0312,-0.04,-0.017,0.003,55.0,56.0,56.0,12.6,1504.2,195.4,-0.5,-0.3,1472.678,13.14,0.043,247.0
07,2021-12-02T00:00:00,1500.0,42.79,6.0312,-0.021,-0.038,0.002,54.0,56.0,56.0,12.6,1504.1,188.4,-0.6,0.0,1472.675,13.13,0.043,208.9
07,2021-12-02T00:30:00,1500.0,42.79,6.0312,-0.028,-0.022,0.004,56.0,55.0,56.0,12.6,1504.2,200.7,-0.3,-0.2,1472.716,13.14,0.035,231.8
07,2021-12-02T01:00:00,1500.0,42.79,6.0312,-0.034,-0.027,-0.01,56.0,55.0,57.0,12.6,1504.2,201.8,-0.3,0.0,1472.723,13.14,0.043,231.5
07,2021-12-02T01:30:00,1500.0,42.79,6.0312,-0.035,-0.022,-0.017,55.0,57.0,57.0,12.6,1504.2,195.8,-0.1,0.0,1472.727,13.14,0.041,237.8
07,2021-12-02T02:00:00,1500.0,42.79,6.0312,-0.043,-0.022,-0.014,56.0,54.0,55.0,12.6,1504.2,203.8,-0.2,-0.3,1472.716,13.14,0.048,242.9
07,2021-12-02T02:30:00,1500.0,42.79,6.0312,-0.039,-0.023,-0.001,53.0,55.0,54.0,12.6,1504.2,209.2,-0.3,0.0,1472.76,13.15,0.045,239.5
07,2021-12-02T03:00:00,1500.0,42.79,6.0312,-0.04,-0.029,-0.005,54.0,55.0,55.0,12.6,1504.2,206.0,-0.2,-0.3,1472.795,13.14,0.049,234.1
07,2021-12-02T03:30:00,1500.0,42.79,6.0312,-0.029,-0.028,0.008,54.0,55.0,55.0,12.6,1504.2,206.9,-0.2,-0.3,1472.862,13.14,0.04,226.0
07,2021-12-02T04:00:00,1500.0,42.79,6.0312,-0.018,-0.029,0.0,55.0,56.0,55.0,12.6,1504.2,206.1,-0.5,-0.3,1472.866,13.14,0.034,211.8
07,2021-12-02T04:30:00,1500.0,42.79,6.0312,-0.018,-0.026,0.009,53.0,56.0,54.0,12.6,1504.2,210.9,-0.3,-0.3,1472.89,13.14,0.031,214.7
07,2021-12-02T05:00:00,1500.0,42.79,6.0312,-0.026,-0.031,0.016,54.0,56.0,54.0,12.6,1504.1,210.4,-0.3,-0.3,1472.904,13.13,0.04,220.0
07,2021-12-02T05:30:00,1500.0,42.79,6.0312,-0.036,-0.03,0.0,54.0,56.0,53.0,12.6,1504.1,213.9,-0.4,-0.3,1472.912,13.13,0.046,230.2
07,2021-12-02T06:00:00,1500.0,42.79,6.0312,-0.03,-0.023,-0.004,53.0,53.0,54.0,12.6,1504.1,212.6,-0.6,-0.1,1472.887,13.13,0.037,232.5
07,2021-12-02T06:30:00,1500.0,42.79,6.0312,-0.031,-0.021,-0.002,52.0,55.0,53.0,12.6,1504.2,219.7,-0.2,-0.3,1472.892,13.14,0.037,235.9
07,2021-12-02T07:00:00,1500.0,42.79,6.0312,-0.024,-0.042,-0.007,52.0,52.0,51.0,12.6,1504.1,212.6,-0.2,-0.2,1472.883,13.13,0.048,209.7
07,2021-12-02T07:30:00,1500.0,42.79,6.0312,-0.033,-0.032,-0.003,52.0,53.0,52.0,12.6,1504.1,220.8,-0.3,-0.3,1472.911,13.13,0.045,225.9
07,2021-12-02T08:00:00,1500.0,42.79,6.0312,-0.047,-0.043,-0.003,53.0,53.0,51.0,12.6,1504.2,221.6,-0.6,0.0,1472.888,13.14,0.063,227.5
07,2021-12-02T08:30:00,1500.0,42.79,6.0312,-0.039,-0.021,0.009,56.0,57.0,56.0,12.6,1504.2,227.9,-0.6,-0.4,1472.903,13.14,0.044,241.7
07,2021-12-02T09:00:00,1500.0,42.79,6.0312,-0.059,-0.027,-0.006,56.0,57.0,54.0,12.6,1504.1,234.9,-0.4,0.0,1472.847,13.13,0.064,245.4
07,2021-12-02T09:30:00,1500.0,42.79,6.0312,-0.035,-0.036,0.004,54.0,54.0,53.0,12.6,1504.1,231.0,-0.4,-0.2,1472.836,13.13,0.05,224.2
07,2021-12-02T10:00:00,1500.0,42.79,6.0312,-0.046,-0.026,0.004,57.0,56.0,54.0,12.6,1504.2,226.2,-0.4,-0.3,1472.831,13.14,0.052,240.5
07,2021-12-02T10:30:00,1500.0,42.79,6.0312,-0.045,-0.022,-0.016,58.0,56.0,54.0,12.6,1504.2,235.9,-0.4,-0.3,1472.855,13.15,0.05,243.9
07,2021-12-02T11:00:00,1500.0,42.79,6.0312,-0.046,-0.028,-0.01,54.0,55.0,54.0,12.6,1504.2,236.2,-0.5,-0.3,1472.808,13.15,0.053,238.7
07,2021-12-02T11:30:00,1500.0,42.79,6.0312,-0.064,-0.021,-0.002,53.0,55.0,53.0,12.6,1504.2,247.8,-0.3,-0.3,1472.804,13.14,0.067,251.8
07,2021-12-02T12:00:00,1500.0,42.79,6.0312,-0.06,-0.014,-0.015,54.0,55.0,53.0,12.6,1504.2,240.4,-0.8,-0.5,1472.849,13.14,0.061,256.9
07,2021-12-02T12:30:00,1500.0,42.79,6.0312,-0.058,-0.015,0.007,55.0,52.0,53.0,12.6,1504.2,241.8,0.0,-0.3,1472.815,13.15,0.059,255.5
07,2021-12-02T13:00:00,1500.0,42.79,6.0312,-0.048,-0.028,0.015,53.0,56.0,53.0,12.6,1504.2,233.9,-0.4,-0.2,1472.849,13.15,0.055,239.7
07,2021-12-02T13:30:00,1500.0,42.79,6.0312,-0.058,-0.025,0.005,53.0,56.0,54.0,12.6,1504.2,229.2,-0.4,-0.1,1472.853,13.14,0.063,246.7
07,2021-12-02T14:00:00,1500.0,42.79,6.0312,-0.051,-0.038,-0.004,53.0,54.0,53.0,12.6,1504.2,218.5,-0.2,-0.1,1472.879,13.14,0.063,233.3
07,2021-12-02T14:30:00,1500.0,42.79,6.0312,-0.064,-0.024,-0.004,52.0,54.0,52.0,12.6,1504.2,229.6,-0.1,0.0,1472.93,13.14,0.068,249.4
07,2021-12-02T15:00:00,1500.0,42.79,6.0312,-0.054,-0.031,-0.018,52.0,52.0,52.0,12.6,1504.2,214.8,-0.7,0.1,1473.002,13.14,0.062,240.1
07,2021-12-02T15:30:00,1500.0,42.79,6.0312,-0.066,-0.035,0.013,53.0,51.0,53.0,12.6,1504.1,218.7,-0.4,-0.5,1473.013,13.13,0.074,242.1
07,2021-12-02T16:00:00,1500.0,42.79,6.0312,-0.067,0.008,0.002,53.0,52.0,51.0,12.6,1504.2,244.3,-0.2,-0.3,1473.003,13.14,0.067,276.8
07,2021-12-02T16:30:00,1500.0,42.79,6.0312,-0.069,-0.015,-0.003,52.0,51.0,52.0,12.6,1504.2,231.3,-0.6,-0.1,1473.003,13.14,0.07,257.7
07,2021-12-02T17:00:00,1500.0,42.79,6.0312,-0.07,-0.02,-0.001,53.0,51.0,51.0,12.6,1504.1,236.5,-0.3,-0.4,1473.045,13.13,0.072,254.1
07,2021-12-02T17:30:00,1500.0,42.79,6.0312,-0.069,0.006,-0.014,52.0,53.0,53.0,12.6,1504.2,237.6,-0.9,-0.1,1473.041,13.14,0.069,275.0
07,2021-12-02T18:00:00,1500.0,42.79,6.0312,-0.081,-0.017,-0.015,52.0,51.0,51.0,12.6,1504.2,230.3,-0.6,-0.1,1473.092,13.14,0.082,258.1
07,2021-12-02T18:30:00,1500.0,42.79,6.0312,-0.075,0.001,-0.019,51.0,52.0,52.0,12.6,1504.1,238.6,-0.5,-0.3,1473.074,13.13,0.075,270.8
07,2021-12-02T19:00:00,1500.0,42.79,6.0312,-0.067,-0.003,-0.014,52.0,51.0,53.0,12.6,1504.1,238.6,-0.7,-0.4,1473.125,13.13,0.067,267.4
07,2021-12-02T19:30:00,1500.0,42.79,6.0312,-0.067,-0.022,-0.004,50.0,52.0,51.0,12.6,1504.1,237.1,-0.8,-0.1,1473.084,13.13,0.07,251.8
07,2021-12-02T20:00:00,1500.0,42.79,6.0312,-0.07,-0.018,0.007,52.0,51.0,51.0,12.6,1504.1,237.7,-0.8,-0.3,1473.089,13.13,0.072,255.6
07,2021-12-02T20:30:00,1500.0,42.79,6.0312,-0.076,-0.019,0.01,51.0,52.0,52.0,12.6,1504.1,241.2,-0.4,-0.1,1473.143,13.13,0.078,256.0
07,2021-12-02T21:00:00,1500.0,42.79,6.0312,-0.09,-0.029,0.004,50.0,51.0,50.0,12.6,1504.1,234.2,-0.7,-0.2,1473.092,13.13,0.094,252.1
